Wetterdaten: Sonntag, 06.12.2015
Datum Zeit Auen-Temp. Temp gefhlt Luftfeuchte Luftdruck Regen Wind Richtung Richtung Taupunkt Windben
06.12.2015 00:00 -0,6 C -0,9 C 92 % 1030,2 hPa 0,0 mm 0,0 km/h (0 Bft) O-NO 67 -1,7 C 0,0 km/h (0 Bft)
06.12.2015 00:05 -0,7 C -1,0 C 92 % 1030,2 hPa 0,0 mm 0,0 km/h (0 Bft) O-NO 67 -1,8 C 0,0 km/h (0 Bft)
06.12.2015 00:10 -1,0 C -1,3 C 92 % 1030,2 hPa 0,0 mm 0,0 km/h (0 Bft) O-NO 67 -2,1 C 0,0 km/h (0 Bft)
06.12.2015 00:15 -0,9 C -1,3 C 92 % 1030,2 hPa 0,0 mm 0,0 km/h (0 Bft) O-NO 67 -2,0 C 0,0 km/h (0 Bft)
06.12.2015 00:20 -0,7 C -1,1 C 92 % 1030,2 hPa 0,0 mm 0,0 km/h (0 Bft) O-NO 67 -1,8 C 0,0 km/h (0 Bft)
06.12.2015 00:25 -0,9 C -1,2 C 92 % 1030,2 hPa 0,0 mm 0,0 km/h (0 Bft) O-NO 67 -2,0 C 0,0 km/h (0 Bft)
06.12.2015 00:30 -0,3 C -0,7 C 87 % 1030,2 hPa 0,0 mm 0,3 km/h (0 Bft) S 180 -2,2 C 0,0 km/h (0 Bft)
06.12.2015 00:35 0,3 C 0,0 C 87 % 1030,2 hPa 0,0 mm 0,8 km/h (0 Bft) S-SO 157 -1,6 C 0,0 km/h (0 Bft)
06.12.2015 00:40 1,2 C 0,9 C 88 % 1030,2 hPa 0,0 mm 1,3 km/h (1 Bft) S-SO 157 -0,6 C 4,4 km/h (1 Bft)
06.12.2015 00:45 1,7 C 1,3 C 88 % 1030,2 hPa 0,0 mm 1,0 km/h (0 Bft) S-SO 157 -0,1 C 2,8 km/h (1 Bft)
06.12.2015 00:50 1,3 C 1,0 C 93 % 1030,2 hPa 0,0 mm 1,0 km/h (0 Bft) SO 135 0,3 C 0,0 km/h (0 Bft)
06.12.2015 00:55 0,7 C 0,5 C 93 % 1030,3 hPa 0,0 mm 0,5 km/h (0 Bft) SO 135 -0,3 C 0,0 km/h (0 Bft)
06.12.2015 01:00 0,9 C 0,4 C 93 % 1030,3 hPa 0,0 mm 0,0 km/h (0 Bft) S 180 -0,1 C 0,0 km/h (0 Bft)
06.12.2015 01:05 1,0 C 0,4 C 93 % 1030,3 hPa 0,0 mm 0,0 km/h (0 Bft) SO 135 -0,0 C 0,0 km/h (0 Bft)
06.12.2015 01:10 0,6 C 0,2 C 93 % 1030,3 hPa 0,0 mm 0,0 km/h (0 Bft) S 180 -0,4 C 0,0 km/h (0 Bft)
06.12.2015 01:15 0,9 C 0,4 C 93 % 1030,4 hPa 0,0 mm 0,0 km/h (0 Bft) S 180 -0,1 C 0,0 km/h (0 Bft)
06.12.2015 01:20 0,8 C 0,3 C 93 % 1030,4 hPa 0,0 mm 0,0 km/h (0 Bft) S 180 -0,2 C 0,0 km/h (0 Bft)
06.12.2015 01:25 0,6 C 0,1 C 93 % 1030,4 hPa 0,0 mm 0,0 km/h (0 Bft) S-SO 157 -0,4 C 0,0 km/h (0 Bft)
06.12.2015 01:30 0,7 C 0,1 C 93 % 1030,4 hPa 0,0 mm 0,0 km/h (0 Bft) S 180 -0,3 C 0,0 km/h (0 Bft)
06.12.2015 01:35 0,7 C 0,1 C 93 % 1030,5 hPa 0,0 mm 0,0 km/h (0 Bft) S 180 -0,3 C 0,0 km/h (0 Bft)
06.12.2015 01:40 0,2 C -0,2 C 92 % 1030,5 hPa 0,0 mm 0,0 km/h (0 Bft) O-SO 112 -0,9 C 0,0 km/h (0 Bft)
06.12.2015 01:45 0,1 C -0,3 C 92 % 1030,5 hPa 0,0 mm 0,0 km/h (0 Bft) SO 135 -1,0 C 3,4 km/h (1 Bft)
06.12.2015 01:50 0,0 C -0,4 C 92 % 1030,5 hPa 0,0 mm 0,3 km/h (0 Bft) O-SO 112 -1,1 C 0,0 km/h (0 Bft)
06.12.2015 01:55 0,0 C -0,4 C 92 % 1030,5 hPa 0,0 mm 0,3 km/h (0 Bft) S-SO 157 -1,1 C 0,0 km/h (0 Bft)
06.12.2015 02:00 0,1 C -0,3 C 92 % 1030,5 hPa 0,0 mm 0,3 km/h (0 Bft) S 180 -1,0 C 5,4 km/h (1 Bft)
06.12.2015 02:05 0,4 C 0,0 C 87 % 1030,5 hPa 0,0 mm 0,5 km/h (0 Bft) S-SW 202 -1,5 C 0,0 km/h (0 Bft)
06.12.2015 02:10 0,2 C -0,2 C 92 % 1030,5 hPa 0,0 mm 0,5 km/h (0 Bft) S-SO 157 -0,9 C 0,0 km/h (0 Bft)
06.12.2015 02:15 0,4 C 0,2 C 87 % 1030,5 hPa 0,0 mm 0,3 km/h (0 Bft) SO 135 -1,5 C 0,0 km/h (0 Bft)
06.12.2015 02:20 0,6 C 0,2 C 92 % 1030,5 hPa 0,0 mm 0,8 km/h (0 Bft) W-SW 247 -0,5 C 2,8 km/h (1 Bft)
06.12.2015 02:25 0,4 C 0,1 C 92 % 1030,5 hPa 0,0 mm 0,5 km/h (0 Bft) S 180 -0,7 C 4,4 km/h (1 Bft)
06.12.2015 02:30 1,2 C 0,9 C 87 % 1030,5 hPa 0,0 mm 1,3 km/h (1 Bft) S 180 -0,7 C 3,4 km/h (1 Bft)
06.12.2015 02:35 1,2 C 0,8 C 92 % 1030,6 hPa 0,0 mm 1,3 km/h (1 Bft) SO 135 0,0 C 0,0 km/h (0 Bft)
06.12.2015 02:40 1,2 C 1,0 C 87 % 1030,6 hPa 0,0 mm 1,6 km/h (1 Bft) S-SO 157 -0,7 C 7,8 km/h (2 Bft)
06.12.2015 02:45 1,5 C 1,2 C 86 % 1030,6 hPa 0,0 mm 2,3 km/h (1 Bft) S 180 -0,6 C 3,1 km/h (1 Bft)
06.12.2015 02:50 1,8 C 1,5 C 86 % 1030,6 hPa 0,0 mm 3,6 km/h (1 Bft) S-SO 157 -0,3 C 15,8 km/h (3 Bft)
06.12.2015 02:55 1,8 C 1,3 C 91 % 1030,6 hPa 0,0 mm 2,8 km/h (1 Bft) S 180 0,5 C 0,0 km/h (0 Bft)
06.12.2015 03:00 1,9 C 1,4 C 90 % 1030,6 hPa 0,0 mm 2,6 km/h (1 Bft) S-SO 157 0,4 C 4,9 km/h (1 Bft)
06.12.2015 03:05 1,8 C 1,3 C 89 % 1030,6 hPa 0,0 mm 3,1 km/h (1 Bft) S 180 0,2 C 4,7 km/h (1 Bft)
06.12.2015 03:10 1,8 C 1,3 C 89 % 1030,6 hPa 0,0 mm 3,9 km/h (1 Bft) S-SO 157 0,2 C 5,2 km/h (1 Bft)
06.12.2015 03:15 1,9 C 1,4 C 88 % 1030,5 hPa 0,0 mm 3,9 km/h (1 Bft) S-SW 202 0,1 C 5,4 km/h (1 Bft)
06.12.2015 03:20 1,9 C 1,4 C 87 % 1030,5 hPa 0,0 mm 3,9 km/h (1 Bft) S 180 -0,0 C 3,9 km/h (1 Bft)
06.12.2015 03:25 1,5 C 1,2 C 87 % 1030,5 hPa 0,0 mm 2,8 km/h (1 Bft) SO 135 -0,4 C 0,0 km/h (0 Bft)
06.12.2015 03:30 1,8 C 1,3 C 87 % 1030,5 hPa 0,0 mm 1,6 km/h (1 Bft) S 180 -0,1 C 0,0 km/h (0 Bft)
06.12.2015 03:35 2,0 C 1,4 C 86 % 1030,4 hPa 0,0 mm 2,3 km/h (1 Bft) S-SO 157 -0,1 C 6,5 km/h (2 Bft)
06.12.2015 03:40 2,2 C 1,6 C 86 % 1030,4 hPa 0,0 mm 2,6 km/h (1 Bft) S-SO 157 0,1 C 2,6 km/h (1 Bft)
06.12.2015 03:45 2,3 C 1,7 C 86 % 1030,4 hPa 0,0 mm 2,3 km/h (1 Bft) S 180 0,2 C 5,7 km/h (1 Bft)
06.12.2015 03:50 2,3 C 1,7 C 84 % 1030,4 hPa 0,0 mm 2,6 km/h (1 Bft) SO 135 -0,1 C 3,1 km/h (1 Bft)
06.12.2015 03:55 2,3 C 1,7 C 83 % 1030,3 hPa 0,0 mm 3,4 km/h (1 Bft) S 180 -0,3 C 2,8 km/h (1 Bft)
06.12.2015 04:00 1,2 C 0,9 C 82 % 1030,3 hPa 0,0 mm 1,6 km/h (1 Bft) N-NO 22 -1,5 C 0,0 km/h (0 Bft)
06.12.2015 04:05 0,9 C 0,5 C 82 % 1030,3 hPa 0,0 mm 0,3 km/h (0 Bft) NO 45 -1,8 C 0,0 km/h (0 Bft)
06.12.2015 04:10 0,7 C 0,2 C 83 % 1030,3 hPa 0,0 mm 0,0 km/h (0 Bft) NO 45 -1,8 C 0,0 km/h (0 Bft)
06.12.2015 04:15 0,3 C -0,2 C 83 % 1030,2 hPa 0,0 mm 0,0 km/h (0 Bft) N-NO 22 -2,2 C 0,0 km/h (0 Bft)
06.12.2015 04:20 -0,1 C -0,6 C 83 % 1030,2 hPa 0,0 mm 0,0 km/h (0 Bft) N-NO 22 -2,6 C 0,0 km/h (0 Bft)
06.12.2015 04:25 -0,2 C -0,7 C 83 % 1030,2 hPa 0,0 mm 0,0 km/h (0 Bft) O-NO 67 -2,7 C 0,0 km/h (0 Bft)
06.12.2015 04:30 -0,4 C -0,8 C 84 % 1030,2 hPa 0,0 mm 0,0 km/h (0 Bft) NO 45 -2,8 C 0,0 km/h (0 Bft)
06.12.2015 04:35 -0,1 C -0,7 C 85 % 1030,2 hPa 0,0 mm 0,0 km/h (0 Bft) O-NO 67 -2,3 C 0,0 km/h (0 Bft)
06.12.2015 04:40 -0,4 C -0,9 C 85 % 1030,2 hPa 0,0 mm 0,0 km/h (0 Bft) O-NO 67 -2,6 C 0,0 km/h (0 Bft)
06.12.2015 04:45 -0,3 C -0,9 C 85 % 1030,2 hPa 0,0 mm 0,0 km/h (0 Bft) O-NO 67 -2,5 C 0,0 km/h (0 Bft)
06.12.2015 04:50 -0,3 C -0,8 C 86 % 1030,2 hPa 0,0 mm 0,0 km/h (0 Bft) O-NO 67 -2,3 C 0,0 km/h (0 Bft)
06.12.2015 04:55 -0,5 C -1,0 C 86 % 1030,2 hPa 0,0 mm 0,0 km/h (0 Bft) NO 45 -2,5 C 0,0 km/h (0 Bft)
06.12.2015 05:00 -0,8 C -1,2 C 86 % 1030,2 hPa 0,0 mm 0,0 km/h (0 Bft) N-NO 22 -2,8 C 0,0 km/h (0 Bft)
06.12.2015 05:05 -0,8 C -1,3 C 86 % 1030,2 hPa 0,0 mm 0,0 km/h (0 Bft) N-NO 22 -2,8 C 0,0 km/h (0 Bft)
06.12.2015 05:10 -1,0 C -1,5 C 86 % 1030,2 hPa 0,0 mm 0,0 km/h (0 Bft) N-NO 22 -3,0 C 0,0 km/h (0 Bft)
06.12.2015 05:15 -1,1 C -1,5 C 86 % 1030,0 hPa 0,0 mm 0,0 km/h (0 Bft) N-NO 22 -3,1 C 0,0 km/h (0 Bft)
06.12.2015 05:20 -1,3 C -1,7 C 86 % 1030,0 hPa 0,0 mm 0,0 km/h (0 Bft) N-NO 22 -3,3 C 0,0 km/h (0 Bft)
06.12.2015 05:25 -1,2 C -1,7 C 86 % 1030,0 hPa 0,0 mm 0,0 km/h (0 Bft) NO 45 -3,2 C 0,0 km/h (0 Bft)
06.12.2015 05:30 -1,0 C -1,5 C 87 % 1030,0 hPa 0,0 mm 0,0 km/h (0 Bft) O-NO 67 -2,9 C 0,0 km/h (0 Bft)
06.12.2015 05:35 -1,2 C -1,6 C 87 % 1030,0 hPa 0,0 mm 0,0 km/h (0 Bft) N-NO 22 -3,1 C 0,0 km/h (0 Bft)
06.12.2015 05:40 -0,9 C -1,4 C 87 % 1030,0 hPa 0,0 mm 0,0 km/h (0 Bft) O-NO 67 -2,8 C 0,0 km/h (0 Bft)
06.12.2015 05:45 -1,2 C -1,6 C 88 % 1030,0 hPa 0,0 mm 0,3 km/h (0 Bft) N-NO 22 -2,9 C 0,0 km/h (0 Bft)
06.12.2015 05:50 -0,8 C -1,3 C 88 % 1030,0 hPa 0,0 mm 0,0 km/h (0 Bft) O-NO 67 -2,5 C 0,0 km/h (0 Bft)
06.12.2015 05:55 -1,2 C -1,6 C 88 % 1030,0 hPa 0,0 mm 0,0 km/h (0 Bft) O-NO 67 -2,9 C 0,0 km/h (0 Bft)
06.12.2015 05:58 -1,2 C -1,6 C 88 % 1030,0 hPa 0,0 mm 0,0 km/h (0 Bft) O-NO 67 -2,9 C 0,0 km/h (0 Bft)
06.12.2015 06:00 -0,9 C -1,4 C 83 % 1030,0 hPa 0,0 mm 0,0 km/h (0 Bft) O-NO 67 -3,4 C 0,0 km/h (0 Bft)
06.12.2015 06:05 -1,1 C -1,6 C 88 % 1030,0 hPa 0,0 mm 0,0 km/h (0 Bft) O-NO 67 -2,8 C 0,0 km/h (0 Bft)
06.12.2015 06:10 -1,1 C -1,6 C 88 % 1030,0 hPa 0,0 mm 0,0 km/h (0 Bft) O-NO 67 -2,8 C 0,0 km/h (0 Bft)
06.12.2015 06:15 -1,4 C -1,8 C 88 % 1030,0 hPa 0,0 mm 0,0 km/h (0 Bft) N-NO 22 -3,1 C 0,0 km/h (0 Bft)
06.12.2015 06:20 -1,7 C -2,0 C 88 % 1030,0 hPa 0,0 mm 0,0 km/h (0 Bft) N-NO 22 -3,4 C 0,0 km/h (0 Bft)
06.12.2015 06:25 -1,5 C -1,9 C 88 % 1030,0 hPa 0,0 mm 0,0 km/h (0 Bft) O-NO 67 -3,2 C 0,0 km/h (0 Bft)
06.12.2015 06:30 -1,6 C -2,0 C 88 % 1030,0 hPa 0,0 mm 0,0 km/h (0 Bft) O-NO 67 -3,3 C 0,0 km/h (0 Bft)
06.12.2015 06:35 -1,4 C -1,8 C 84 % 1029,8 hPa 0,0 mm 0,0 km/h (0 Bft) O-NO 67 -3,7 C 0,0 km/h (0 Bft)
06.12.2015 06:40 -1,4 C -1,8 C 89 % 1029,8 hPa 0,0 mm 0,0 km/h (0 Bft) N-NO 22 -3,0 C 0,0 km/h (0 Bft)
06.12.2015 06:45 -1,7 C -2,0 C 89 % 1029,8 hPa 0,0 mm 0,0 km/h (0 Bft) NO 45 -3,3 C 0,0 km/h (0 Bft)
06.12.2015 06:50 -1,8 C -2,1 C 89 % 1029,8 hPa 0,0 mm 0,0 km/h (0 Bft) N 360 -3,4 C 0,0 km/h (0 Bft)
06.12.2015 06:55 -1,6 C -2,0 C 89 % 1029,8 hPa 0,0 mm 0,0 km/h (0 Bft) N 360 -3,2 C 0,0 km/h (0 Bft)
06.12.2015 07:00 -1,7 C -2,0 C 89 % 1029,8 hPa 0,0 mm 0,0 km/h (0 Bft) N 360 -3,3 C 0,0 km/h (0 Bft)
06.12.2015 07:05 -1,4 C -1,8 C 89 % 1029,8 hPa 0,0 mm 0,0 km/h (0 Bft) O-NO 67 -3,0 C 0,0 km/h (0 Bft)
06.12.2015 07:10 -1,6 C -1,9 C 89 % 1029,8 hPa 0,0 mm 0,0 km/h (0 Bft) O-NO 67 -3,2 C 0,0 km/h (0 Bft)
06.12.2015 07:15 -1,8 C -2,1 C 89 % 1030,0 hPa 0,0 mm 0,0 km/h (0 Bft) O-NO 67 -3,4 C 0,0 km/h (0 Bft)
06.12.2015 07:20 -1,7 C -2,1 C 89 % 1030,0 hPa 0,0 mm 0,0 km/h (0 Bft) O-NO 67 -3,3 C 0,0 km/h (0 Bft)
06.12.2015 07:25 -1,8 C -2,2 C 89 % 1030,0 hPa 0,0 mm 0,0 km/h (0 Bft) O-NO 67 -3,4 C 0,0 km/h (0 Bft)
06.12.2015 07:30 -1,8 C -2,2 C 89 % 1030,0 hPa 0,0 mm 0,0 km/h (0 Bft) O-NO 67 -3,4 C 0,0 km/h (0 Bft)
06.12.2015 07:35 -2,1 C -2,3 C 89 % 1029,7 hPa 0,0 mm 0,0 km/h (0 Bft) O-NO 67 -3,7 C 0,0 km/h (0 Bft)
06.12.2015 07:40 -1,7 C -2,1 C 89 % 1029,7 hPa 0,0 mm 0,0 km/h (0 Bft) O-NO 67 -3,3 C 0,0 km/h (0 Bft)
06.12.2015 07:45 -1,6 C -2,0 C 89 % 1029,7 hPa 0,0 mm 0,0 km/h (0 Bft) O-NO 67 -3,2 C 0,0 km/h (0 Bft)
06.12.2015 07:50 -1,3 C -1,8 C 90 % 1029,7 hPa 0,0 mm 0,0 km/h (0 Bft) O-NO 67 -2,7 C 0,0 km/h (0 Bft)
06.12.2015 07:55 -1,3 C -1,8 C 90 % 1030,2 hPa 0,0 mm 0,0 km/h (0 Bft) O-NO 67 -2,7 C 0,0 km/h (0 Bft)
06.12.2015 08:00 -1,2 C -1,6 C 90 % 1030,2 hPa 0,0 mm 0,0 km/h (0 Bft) O-NO 67 -2,6 C 0,0 km/h (0 Bft)
06.12.2015 08:05 -1,4 C -1,8 C 90 % 1030,2 hPa 0,0 mm 0,0 km/h (0 Bft) O-NO 67 -2,8 C 0,0 km/h (0 Bft)
06.12.2015 08:10 -1,4 C -1,7 C 90 % 1030,2 hPa 0,0 mm 0,0 km/h (0 Bft) O-NO 67 -2,8 C 0,0 km/h (0 Bft)
06.12.2015 08:15 -1,6 C -1,8 C 90 % 1030,5 hPa 0,0 mm 0,0 km/h (0 Bft) O-NO 67 -3,0 C 0,0 km/h (0 Bft)
06.12.2015 08:20 -1,3 C -1,6 C 90 % 1030,5 hPa 0,0 mm 0,0 km/h (0 Bft) O-NO 67 -2,7 C 0,0 km/h (0 Bft)
06.12.2015 08:25 -1,4 C -1,6 C 90 % 1030,5 hPa 0,0 mm 0,0 km/h (0 Bft) NO 45 -2,8 C 0,0 km/h (0 Bft)
06.12.2015 08:30 -1,1 C -1,5 C 90 % 1030,5 hPa 0,0 mm 0,0 km/h (0 Bft) NO 45 -2,5 C 0,0 km/h (0 Bft)
06.12.2015 08:35 -1,2 C -1,5 C 90 % 1030,9 hPa 0,0 mm 0,0 km/h (0 Bft) N-NO 22 -2,6 C 0,0 km/h (0 Bft)
06.12.2015 08:40 -0,8 C -1,3 C 91 % 1030,9 hPa 0,0 mm 0,0 km/h (0 Bft) O-NO 67 -2,1 C 0,0 km/h (0 Bft)
06.12.2015 08:45 -0,7 C -1,1 C 91 % 1030,9 hPa 0,0 mm 0,0 km/h (0 Bft) NO 45 -2,0 C 0,0 km/h (0 Bft)
06.12.2015 08:50 -0,5 C -0,9 C 91 % 1030,9 hPa 0,0 mm 0,0 km/h (0 Bft) O-NO 67 -1,8 C 0,0 km/h (0 Bft)
06.12.2015 08:55 -0,4 C -0,8 C 91 % 1031,0 hPa 0,0 mm 0,0 km/h (0 Bft) O-NO 67 -1,7 C 0,0 km/h (0 Bft)
06.12.2015 09:00 -0,5 C -0,8 C 91 % 1031,0 hPa 0,0 mm 0,0 km/h (0 Bft) O-NO 67 -1,8 C 0,0 km/h (0 Bft)
06.12.2015 09:05 -0,3 C -0,4 C 86 % 1031,0 hPa 0,0 mm 0,0 km/h (0 Bft) O-SO 112 -2,3 C 0,0 km/h (0 Bft)
06.12.2015 09:10 0,2 C 0,0 C 86 % 1031,0 hPa 0,0 mm 0,0 km/h (0 Bft) O-SO 112 -1,9 C 0,0 km/h (0 Bft)
06.12.2015 09:15 0,9 C 0,6 C 86 % 1031,2 hPa 0,0 mm 0,3 km/h (0 Bft) S-SO 157 -1,2 C 0,0 km/h (0 Bft)
06.12.2015 09:20 1,3 C 0,9 C 86 % 1031,2 hPa 0,0 mm 1,0 km/h (0 Bft) SO 135 -0,8 C 0,0 km/h (0 Bft)
06.12.2015 09:25 1,2 C 0,9 C 85 % 1031,2 hPa 0,0 mm 1,0 km/h (0 Bft) O-SO 112 -1,0 C 0,0 km/h (0 Bft)
06.12.2015 09:30 1,7 C 1,5 C 86 % 1031,2 hPa 0,0 mm 1,0 km/h (0 Bft) S-SO 157 -0,4 C 4,1 km/h (1 Bft)
06.12.2015 09:35 2,1 C 1,9 C 85 % 1031,3 hPa 0,0 mm 1,8 km/h (1 Bft) SO 135 -0,2 C 0,0 km/h (0 Bft)
06.12.2015 09:40 1,9 C 1,6 C 88 % 1031,3 hPa 0,0 mm 1,0 km/h (0 Bft) O-SO 112 0,1 C 0,0 km/h (0 Bft)
06.12.2015 09:45 1,9 C 1,7 C 85 % 1031,3 hPa 0,0 mm 0,3 km/h (0 Bft) S 180 -0,3 C 0,0 km/h (0 Bft)
06.12.2015 09:50 2,4 C 2,3 C 85 % 1031,3 hPa 0,0 mm 1,6 km/h (1 Bft) S 180 0,1 C 4,1 km/h (1 Bft)
06.12.2015 09:55 3,0 C 2,8 C 83 % 1031,5 hPa 0,0 mm 2,6 km/h (1 Bft) S 180 0,4 C 7,8 km/h (2 Bft)
06.12.2015 10:00 3,5 C 3,1 C 86 % 1031,5 hPa 0,0 mm 5,7 km/h (1 Bft) S 180 1,4 C 9,8 km/h (2 Bft)
06.12.2015 10:05 3,9 C 3,4 C 86 % 1031,5 hPa 0,0 mm 6,5 km/h (2 Bft) S 180 1,8 C 6,0 km/h (2 Bft)
06.12.2015 10:10 4,6 C 4,2 C 84 % 1031,5 hPa 0,0 mm 6,7 km/h (2 Bft) S 180 2,1 C 10,1 km/h (2 Bft)
06.12.2015 10:15 4,9 C 4,5 C 83 % 1031,7 hPa 0,0 mm 6,7 km/h (2 Bft) S 180 2,3 C 7,5 km/h (2 Bft)
06.12.2015 10:20 5,4 C 5,0 C 81 % 1031,7 hPa 0,0 mm 7,8 km/h (2 Bft) SW 225 2,4 C 10,4 km/h (2 Bft)
06.12.2015 10:25 5,7 C 5,3 C 79 % 1031,7 hPa 0,0 mm 9,3 km/h (2 Bft) SW 225 2,3 C 10,9 km/h (2 Bft)
06.12.2015 10:30 5,7 C 5,5 C 78 % 1031,7 hPa 0,0 mm 7,5 km/h (2 Bft) SW 225 2,2 C 12,7 km/h (3 Bft)
06.12.2015 10:35 6,0 C 5,9 C 77 % 1031,8 hPa 0,0 mm 7,0 km/h (2 Bft) SW 225 2,3 C 14,0 km/h (3 Bft)
06.12.2015 10:40 6,2 C 6,1 C 75 % 1031,8 hPa 0,0 mm 6,7 km/h (2 Bft) S 180 2,1 C 9,3 km/h (2 Bft)
06.12.2015 10:45 6,1 C 6,5 C 76 % 1031,8 hPa 0,0 mm 4,7 km/h (1 Bft) O-NO 67 2,2 C 0,0 km/h (0 Bft)
06.12.2015 10:50 6,0 C 6,5 C 76 % 1031,8 hPa 0,0 mm 1,8 km/h (1 Bft) W-SW 247 2,1 C 11,4 km/h (2 Bft)
06.12.2015 10:55 6,2 C 6,6 C 76 % 1031,7 hPa 0,0 mm 1,0 km/h (0 Bft) S-SO 157 2,3 C 0,0 km/h (0 Bft)
06.12.2015 11:00 6,6 C 6,9 C 75 % 1031,7 hPa 0,0 mm 2,3 km/h (1 Bft) SW 225 2,5 C 0,0 km/h (0 Bft)
06.12.2015 11:05 6,3 C 6,9 C 75 % 1031,7 hPa 0,0 mm 1,6 km/h (1 Bft) W 270 2,2 C 0,0 km/h (0 Bft)
06.12.2015 11:10 6,6 C 7,0 C 75 % 1031,7 hPa 0,0 mm 0,8 km/h (0 Bft) W-NW 292 2,5 C 0,0 km/h (0 Bft)
06.12.2015 11:15 6,4 C 7,0 C 75 % 1031,7 hPa 0,0 mm 0,8 km/h (0 Bft) W 270 2,3 C 2,6 km/h (1 Bft)
06.12.2015 11:20 6,1 C 7,0 C 75 % 1031,7 hPa 0,0 mm 0,0 km/h (0 Bft) O-SO 112 2,0 C 0,0 km/h (0 Bft)
06.12.2015 11:25 5,9 C 6,9 C 76 % 1031,7 hPa 0,0 mm 0,0 km/h (0 Bft) O-SO 112 2,0 C 0,0 km/h (0 Bft)
06.12.2015 11:30 6,6 C 7,1 C 75 % 1031,7 hPa 0,0 mm 1,0 km/h (0 Bft) O-NO 67 2,5 C 0,0 km/h (0 Bft)
06.12.2015 11:35 6,3 C 7,1 C 75 % 1031,3 hPa 0,0 mm 1,6 km/h (1 Bft) SW 225 2,2 C 3,9 km/h (1 Bft)
06.12.2015 11:40 6,5 C 7,3 C 75 % 1031,3 hPa 0,0 mm 0,5 km/h (0 Bft) SO 135 2,4 C 0,0 km/h (0 Bft)
06.12.2015 11:45 6,2 C 7,3 C 75 % 1031,3 hPa 0,0 mm 0,5 km/h (0 Bft) SO 135 2,1 C 0,0 km/h (0 Bft)
06.12.2015 11:50 6,7 C 7,3 C 76 % 1031,3 hPa 0,0 mm 0,0 km/h (0 Bft) SO 135 2,8 C 0,0 km/h (0 Bft)
06.12.2015 11:55 6,3 C 7,3 C 75 % 1031,2 hPa 0,0 mm 0,0 km/h (0 Bft) SO 135 2,2 C 0,0 km/h (0 Bft)
06.12.2015 11:56 6,4 C 7,3 C 75 % 1031,2 hPa 0,0 mm 0,0 km/h (0 Bft) SO 135 2,3 C 0,0 km/h (0 Bft)
06.12.2015 11:59 6,4 C 7,3 C 75 % 1031,2 hPa 0,0 mm 0,0 km/h (0 Bft) SO 135 2,3 C 0,0 km/h (0 Bft)
06.12.2015 12:05 7,1 C 7,4 C 75 % 1031,2 hPa 0,0 mm 0,0 km/h (0 Bft) O-SO 112 3,0 C 0,0 km/h (0 Bft)
06.12.2015 12:10 7,6 C 7,7 C 73 % 1031,2 hPa 0,0 mm 0,5 km/h (0 Bft) SO 135 3,1 C 0,0 km/h (0 Bft)
06.12.2015 12:15 8,1 C 8,1 C 71 % 1031,0 hPa 0,0 mm 0,8 km/h (0 Bft) SO 135 3,2 C 0,0 km/h (0 Bft)
06.12.2015 12:20 8,1 C 8,3 C 70 % 1031,0 hPa 0,0 mm 0,3 km/h (0 Bft) O-SO 112 3,0 C 0,0 km/h (0 Bft)
06.12.2015 12:25 8,3 C 8,5 C 70 % 1031,0 hPa 0,0 mm 0,0 km/h (0 Bft) O-NO 67 3,2 C 0,0 km/h (0 Bft)
06.12.2015 12:30 8,6 C 8,8 C 68 % 1031,0 hPa 0,0 mm 0,3 km/h (0 Bft) W-SW 247 3,0 C 4,1 km/h (1 Bft)
06.12.2015 12:35 8,6 C 9,0 C 68 % 1031,0 hPa 0,0 mm 0,8 km/h (0 Bft) SW 225 3,0 C 0,0 km/h (0 Bft)
06.12.2015 12:40 8,5 C 9,3 C 68 % 1031,0 hPa 0,0 mm 1,3 km/h (1 Bft) W-SW 247 2,9 C 3,9 km/h (1 Bft)
06.12.2015 12:45 8,9 C 9,5 C 67 % 1031,0 hPa 0,0 mm 1,6 km/h (1 Bft) S 180 3,1 C 0,0 km/h (0 Bft)
06.12.2015 12:50 9,3 C 9,8 C 65 % 1031,0 hPa 0,0 mm 2,3 km/h (1 Bft) SW 225 3,1 C 4,7 km/h (1 Bft)
06.12.2015 12:55 9,5 C 9,9 C 65 % 1030,8 hPa 0,0 mm 1,8 km/h (1 Bft) W-SW 247 3,3 C 2,8 km/h (1 Bft)
06.12.2015 13:00 9,6 C 10,1 C 64 % 1030,8 hPa 0,0 mm 3,9 km/h (1 Bft) NW 315 3,1 C 17,6 km/h (3 Bft)
06.12.2015 13:05 9,8 C 10,3 C 63 % 1030,8 hPa 0,0 mm 6,2 km/h (2 Bft) NW 315 3,1 C 9,8 km/h (2 Bft)
06.12.2015 13:10 9,5 C 10,3 C 64 % 1030,8 hPa 0,0 mm 7,5 km/h (2 Bft) NW 315 3,0 C 17,9 km/h (3 Bft)
06.12.2015 13:15 9,6 C 10,3 C 63 % 1030,8 hPa 0,0 mm 7,5 km/h (2 Bft) N-NW 337 2,9 C 13,2 km/h (3 Bft)
06.12.2015 13:20 10,0 C 9,9 C 63 % 1030,8 hPa 0,0 mm 11,4 km/h (2 Bft) W 270 3,3 C 22,3 km/h (4 Bft)
06.12.2015 13:25 9,6 C 9,9 C 63 % 1030,8 hPa 0,0 mm 10,1 km/h (2 Bft) NW 315 2,9 C 11,7 km/h (2 Bft)
06.12.2015 13:30 9,9 C 10,1 C 63 % 1030,8 hPa 0,0 mm 9,1 km/h (2 Bft) W 270 3,2 C 11,4 km/h (2 Bft)
06.12.2015 13:35 9,9 C 10,2 C 62 % 1030,7 hPa 0,0 mm 10,1 km/h (2 Bft) W 270 3,0 C 12,7 km/h (3 Bft)
06.12.2015 13:40 10,2 C 11,4 C 63 % 1030,7 hPa 0,0 mm 10,4 km/h (2 Bft) W 270 3,5 C 26,2 km/h (4 Bft)
06.12.2015 13:45 10,6 C 12,4 C 62 % 1030,7 hPa 0,0 mm 10,6 km/h (2 Bft) W 270 3,6 C 14,2 km/h (3 Bft)
06.12.2015 13:50 10,8 C 13,6 C 62 % 1030,7 hPa 0,0 mm 10,9 km/h (2 Bft) W 270 3,8 C 23,0 km/h (4 Bft)
06.12.2015 13:55 10,8 C 13,8 C 62 % 1030,8 hPa 0,0 mm 11,4 km/h (2 Bft) W-NW 292 3,8 C 21,8 km/h (4 Bft)
06.12.2015 14:00 10,5 C 13,9 C 62 % 1030,8 hPa 0,0 mm 12,2 km/h (2 Bft) NW 315 3,5 C 27,7 km/h (4 Bft)
06.12.2015 14:05 10,2 C 14,0 C 62 % 1030,8 hPa 0,0 mm 10,9 km/h (2 Bft) W-SW 247 3,3 C 11,9 km/h (2 Bft)
06.12.2015 14:10 10,0 C 13,9 C 63 % 1030,8 hPa 0,0 mm 9,6 km/h (2 Bft) W 270 3,3 C 15,5 km/h (3 Bft)
06.12.2015 14:15 9,8 C 12,8 C 63 % 1030,9 hPa 0,0 mm 8,5 km/h (2 Bft) NW 315 3,1 C 5,4 km/h (1 Bft)
06.12.2015 14:20 9,4 C 12,7 C 64 % 1030,9 hPa 0,0 mm 6,2 km/h (2 Bft) W-NW 292 2,9 C 4,7 km/h (1 Bft)
06.12.2015 14:25 9,1 C 12,5 C 64 % 1030,9 hPa 0,0 mm 4,7 km/h (1 Bft) W-NW 292 2,7 C 4,4 km/h (1 Bft)
06.12.2015 14:30 9,3 C 11,6 C 65 % 1030,9 hPa 0,0 mm 4,1 km/h (1 Bft) W-NW 292 3,1 C 5,2 km/h (1 Bft)
06.12.2015 14:35 9,6 C 12,0 C 65 % 1030,8 hPa 0,0 mm 6,5 km/h (2 Bft) W-NW 292 3,4 C 6,2 km/h (2 Bft)
06.12.2015 14:40 9,4 C 13,0 C 65 % 1030,8 hPa 0,0 mm 8,3 km/h (2 Bft) N-NW 337 3,2 C 14,0 km/h (3 Bft)
06.12.2015 14:45 9,5 C 13,0 C 65 % 1030,8 hPa 0,0 mm 7,8 km/h (2 Bft) W 270 3,3 C 11,7 km/h (2 Bft)
06.12.2015 14:50 9,2 C 12,0 C 65 % 1030,8 hPa 0,0 mm 7,3 km/h (2 Bft) W-SW 247 3,0 C 5,4 km/h (1 Bft)
06.12.2015 14:55 9,0 C 12,0 C 65 % 1030,7 hPa 0,0 mm 6,0 km/h (2 Bft) W 270 2,8 C 9,3 km/h (2 Bft)
06.12.2015 15:00 9,1 C 12,5 C 65 % 1030,7 hPa 0,0 mm 5,2 km/h (1 Bft) W 270 2,9 C 2,6 km/h (1 Bft)
06.12.2015 15:05 8,8 C 11,5 C 66 % 1030,7 hPa 0,0 mm 4,4 km/h (1 Bft) NW 315 2,8 C 4,4 km/h (1 Bft)
06.12.2015 15:10 8,7 C 10,3 C 67 % 1030,7 hPa 0,0 mm 4,7 km/h (1 Bft) W 270 2,9 C 8,5 km/h (2 Bft)
06.12.2015 15:15 8,6 C 9,9 C 67 % 1030,8 hPa 0,0 mm 6,5 km/h (2 Bft) W 270 2,8 C 10,1 km/h (2 Bft)
06.12.2015 15:20 8,6 C 9,3 C 67 % 1030,8 hPa 0,0 mm 7,3 km/h (2 Bft) W 270 2,8 C 5,7 km/h (1 Bft)
06.12.2015 15:25 8,4 C 9,3 C 68 % 1030,8 hPa 0,0 mm 6,2 km/h (2 Bft) W 270 2,8 C 6,2 km/h (2 Bft)
06.12.2015 15:30 8,2 C 9,0 C 68 % 1030,8 hPa 0,0 mm 3,4 km/h (1 Bft) W-NW 292 2,7 C 3,9 km/h (1 Bft)
06.12.2015 15:35 8,1 C 8,8 C 69 % 1030,8 hPa 0,0 mm 2,6 km/h (1 Bft) W-SW 247 2,8 C 8,0 km/h (2 Bft)
06.12.2015 15:40 8,2 C 8,6 C 69 % 1030,8 hPa 0,0 mm 3,6 km/h (1 Bft) W 270 2,9 C 4,9 km/h (1 Bft)
06.12.2015 15:45 8,1 C 8,5 C 69 % 1030,8 hPa 0,0 mm 4,4 km/h (1 Bft) W-SW 247 2,8 C 3,4 km/h (1 Bft)
06.12.2015 15:50 7,7 C 8,2 C 70 % 1030,8 hPa 0,0 mm 2,6 km/h (1 Bft) W-NW 292 2,6 C 0,0 km/h (0 Bft)
06.12.2015 15:55 7,5 C 8,0 C 70 % 1030,8 hPa 0,0 mm 1,6 km/h (1 Bft) W 270 2,4 C 2,6 km/h (1 Bft)
06.12.2015 16:00 7,7 C 7,7 C 70 % 1030,8 hPa 0,0 mm 0,8 km/h (0 Bft) W-SW 247 2,6 C 0,0 km/h (0 Bft)
06.12.2015 16:05 7,7 C 7,6 C 70 % 1030,8 hPa 0,0 mm 1,0 km/h (0 Bft) W 270 2,6 C 4,1 km/h (1 Bft)
06.12.2015 16:10 7,8 C 7,6 C 70 % 1030,8 hPa 0,0 mm 2,1 km/h (1 Bft) W-SW 247 2,7 C 3,9 km/h (1 Bft)
06.12.2015 16:15 7,9 C 7,7 C 70 % 1031,1 hPa 0,0 mm 2,6 km/h (1 Bft) S 180 2,8 C 3,1 km/h (1 Bft)
06.12.2015 16:20 7,8 C 7,6 C 70 % 1031,1 hPa 0,0 mm 2,6 km/h (1 Bft) SW 225 2,7 C 3,6 km/h (1 Bft)
06.12.2015 16:25 7,6 C 7,4 C 70 % 1031,1 hPa 0,0 mm 2,3 km/h (1 Bft) S-SW 202 2,5 C 4,9 km/h (1 Bft)
06.12.2015 16:30 7,6 C 7,4 C 70 % 1031,1 hPa 0,0 mm 3,9 km/h (1 Bft) S 180 2,5 C 4,4 km/h (1 Bft)
06.12.2015 16:35 7,4 C 7,3 C 71 % 1031,2 hPa 0,0 mm 3,6 km/h (1 Bft) SO 135 2,5 C 2,8 km/h (1 Bft)
06.12.2015 16:40 6,9 C 6,8 C 72 % 1031,2 hPa 0,0 mm 1,0 km/h (0 Bft) S-SO 157 2,2 C 0,0 km/h (0 Bft)
06.12.2015 16:45 6,2 C 6,2 C 71 % 1031,2 hPa 0,0 mm 0,3 km/h (0 Bft) SO 135 1,3 C 0,0 km/h (0 Bft)
06.12.2015 16:50 5,7 C 5,5 C 74 % 1031,2 hPa 0,0 mm 0,0 km/h (0 Bft) SO 135 1,4 C 0,0 km/h (0 Bft)
06.12.2015 16:55 5,9 C 5,6 C 74 % 1031,2 hPa 0,0 mm 0,0 km/h (0 Bft) SW 225 1,6 C 0,0 km/h (0 Bft)
06.12.2015 17:00 5,7 C 5,3 C 76 % 1031,2 hPa 0,0 mm 0,0 km/h (0 Bft) SO 135 1,8 C 0,0 km/h (0 Bft)
06.12.2015 17:05 5,7 C 5,3 C 76 % 1031,2 hPa 0,0 mm 0,3 km/h (0 Bft) SO 135 1,8 C 0,0 km/h (0 Bft)
06.12.2015 17:10 5,4 C 5,1 C 75 % 1031,2 hPa 0,0 mm 0,3 km/h (0 Bft) S-SO 157 1,3 C 0,0 km/h (0 Bft)
06.12.2015 17:15 5,3 C 5,0 C 75 % 1031,4 hPa 0,0 mm 0,5 km/h (0 Bft) S-SO 157 1,2 C 3,1 km/h (1 Bft)
06.12.2015 17:20 5,1 C 4,7 C 77 % 1031,4 hPa 0,0 mm 0,5 km/h (0 Bft) S 180 1,4 C 0,0 km/h (0 Bft)
06.12.2015 17:25 5,1 C 4,7 C 76 % 1031,4 hPa 0,0 mm 0,3 km/h (0 Bft) SO 135 1,2 C 0,0 km/h (0 Bft)
06.12.2015 17:30 5,1 C 4,6 C 77 % 1031,4 hPa 0,0 mm 0,0 km/h (0 Bft) S-SO 157 1,4 C 0,0 km/h (0 Bft)
06.12.2015 17:35 5,0 C 4,4 C 77 % 1031,5 hPa 0,0 mm 0,0 km/h (0 Bft) SO 135 1,3 C 0,0 km/h (0 Bft)
06.12.2015 17:40 5,2 C 4,6 C 77 % 1031,5 hPa 0,0 mm 0,0 km/h (0 Bft) SO 135 1,5 C 0,0 km/h (0 Bft)
06.12.2015 17:45 5,3 C 4,6 C 78 % 1031,5 hPa 0,0 mm 0,0 km/h (0 Bft) S 180 1,8 C 0,0 km/h (0 Bft)
06.12.2015 17:50 5,3 C 4,6 C 78 % 1031,5 hPa 0,0 mm 0,5 km/h (0 Bft) SO 135 1,8 C 4,9 km/h (1 Bft)
06.12.2015 17:55 5,1 C 4,6 C 77 % 1031,7 hPa 0,0 mm 1,6 km/h (1 Bft) S 180 1,4 C 3,1 km/h (1 Bft)
06.12.2015 17:56 5,2 C 4,7 C 77 % 1031,7 hPa 0,0 mm 2,3 km/h (1 Bft) S 180 1,5 C 4,7 km/h (1 Bft)
06.12.2015 18:00 5,2 C 4,7 C 77 % 1031,7 hPa 0,0 mm 2,3 km/h (1 Bft) S 180 1,5 C 4,7 km/h (1 Bft)
06.12.2015 18:05 5,0 C 4,6 C 77 % 1031,7 hPa 0,0 mm 2,1 km/h (1 Bft) S 180 1,3 C 3,4 km/h (1 Bft)
06.12.2015 18:10 5,0 C 4,7 C 77 % 1031,7 hPa 0,0 mm 2,8 km/h (1 Bft) S-SO 157 1,3 C 3,1 km/h (1 Bft)
06.12.2015 18:15 5,0 C 4,7 C 78 % 1031,7 hPa 0,0 mm 2,6 km/h (1 Bft) SO 135 1,5 C 4,7 km/h (1 Bft)
06.12.2015 18:20 4,6 C 4,3 C 78 % 1031,7 hPa 0,0 mm 1,3 km/h (1 Bft) SO 135 1,1 C 4,1 km/h (1 Bft)
06.12.2015 18:25 4,6 C 4,3 C 79 % 1031,7 hPa 0,0 mm 1,8 km/h (1 Bft) SO 135 1,3 C 0,0 km/h (0 Bft)
06.12.2015 18:30 4,7 C 4,3 C 79 % 1031,7 hPa 0,0 mm 1,6 km/h (1 Bft) S 180 1,4 C 0,0 km/h (0 Bft)
06.12.2015 18:35 4,8 C 4,3 C 79 % 1031,8 hPa 0,0 mm 0,3 km/h (0 Bft) S-SO 157 1,5 C 0,0 km/h (0 Bft)
06.12.2015 18:40 5,0 C 4,4 C 79 % 1031,8 hPa 0,0 mm 0,0 km/h (0 Bft) SO 135 1,7 C 0,0 km/h (0 Bft)
06.12.2015 18:45 4,9 C 4,3 C 79 % 1031,8 hPa 0,0 mm 0,0 km/h (0 Bft) SO 135 1,6 C 0,0 km/h (0 Bft)
06.12.2015 18:50 4,6 C 4,1 C 79 % 1031,8 hPa 0,0 mm 0,0 km/h (0 Bft) S-SW 202 1,3 C 0,0 km/h (0 Bft)
06.12.2015 18:55 4,1 C 3,7 C 78 % 1031,8 hPa 0,0 mm 0,0 km/h (0 Bft) S-SW 202 0,6 C 0,0 km/h (0 Bft)
06.12.2015 19:00 4,4 C 3,9 C 79 % 1031,8 hPa 0,0 mm 0,0 km/h (0 Bft) SO 135 1,1 C 0,0 km/h (0 Bft)
06.12.2015 19:05 4,6 C 4,0 C 79 % 1031,8 hPa 0,0 mm 0,0 km/h (0 Bft) SO 135 1,3 C 0,0 km/h (0 Bft)
06.12.2015 19:10 4,6 C 3,9 C 79 % 1031,8 hPa 0,0 mm 0,0 km/h (0 Bft) SO 135 1,3 C 0,0 km/h (0 Bft)
06.12.2015 19:15 4,3 C 3,8 C 78 % 1031,9 hPa 0,0 mm 0,3 km/h (0 Bft) S-SO 157 0,8 C 0,0 km/h (0 Bft)
06.12.2015 19:20 3,9 C 3,5 C 78 % 1031,9 hPa 0,0 mm 0,3 km/h (0 Bft) S-SO 157 0,4 C 0,0 km/h (0 Bft)
06.12.2015 19:25 4,1 C 3,6 C 79 % 1031,9 hPa 0,0 mm 0,0 km/h (0 Bft) SO 135 0,8 C 0,0 km/h (0 Bft)
06.12.2015 19:30 3,9 C 3,5 C 79 % 1031,9 hPa 0,0 mm 0,0 km/h (0 Bft) NO 45 0,6 C 0,0 km/h (0 Bft)
06.12.2015 19:35 4,2 C 3,7 C 79 % 1032,0 hPa 0,0 mm 0,3 km/h (0 Bft) SO 135 0,9 C 0,0 km/h (0 Bft)
06.12.2015 19:40 3,7 C 3,3 C 79 % 1032,0 hPa 0,0 mm 0,0 km/h (0 Bft) W-NW 292 0,4 C 0,0 km/h (0 Bft)
06.12.2015 19:45 3,2 C 3,0 C 78 % 1032,0 hPa 0,0 mm 0,0 km/h (0 Bft) W-SW 247 -0,3 C 0,0 km/h (0 Bft)
06.12.2015 19:50 3,8 C 3,3 C 79 % 1032,0 hPa 0,0 mm 0,0 km/h (0 Bft) SO 135 0,5 C 0,0 km/h (0 Bft)
06.12.2015 19:55 3,3 C 3,0 C 79 % 1032,3 hPa 0,0 mm 0,0 km/h (0 Bft) O-SO 112 0,0 C 0,0 km/h (0 Bft)
06.12.2015 20:00 3,0 C 2,8 C 79 % 1032,3 hPa 0,0 mm 1,3 km/h (1 Bft) SO 135 -0,3 C 0,0 km/h (0 Bft)
06.12.2015 20:05 3,9 C 3,6 C 77 % 1032,3 hPa 0,0 mm 2,8 km/h (1 Bft) SW 225 0,2 C 9,3 km/h (2 Bft)
06.12.2015 20:10 4,2 C 3,9 C 78 % 1032,3 hPa 0,0 mm 3,9 km/h (1 Bft) W-SW 247 0,7 C 11,7 km/h (2 Bft)
06.12.2015 20:15 4,5 C 4,2 C 78 % 1032,3 hPa 0,0 mm 4,1 km/h (1 Bft) S-SW 202 1,0 C 8,8 km/h (2 Bft)
06.12.2015 20:20 4,7 C 4,4 C 77 % 1032,3 hPa 0,0 mm 5,7 km/h (1 Bft) W-SW 247 1,0 C 11,4 km/h (2 Bft)
06.12.2015 20:25 4,5 C 4,3 C 76 % 1032,3 hPa 0,0 mm 6,0 km/h (2 Bft) SW 225 0,6 C 6,5 km/h (2 Bft)
06.12.2015 20:30 4,1 C 4,1 C 76 % 1032,3 hPa 0,0 mm 3,9 km/h (1 Bft) S 180 0,3 C 2,8 km/h (1 Bft)
06.12.2015 20:35 4,0 C 3,9 C 76 % 1032,5 hPa 0,0 mm 2,8 km/h (1 Bft) S 180 0,2 C 5,4 km/h (1 Bft)
06.12.2015 20:40 3,7 C 3,7 C 75 % 1032,5 hPa 0,0 mm 3,1 km/h (1 Bft) S-SO 157 -0,3 C 3,9 km/h (1 Bft)
06.12.2015 20:45 3,8 C 3,7 C 75 % 1032,5 hPa 0,0 mm 2,6 km/h (1 Bft) S 180 -0,2 C 0,0 km/h (0 Bft)
06.12.2015 20:50 4,0 C 3,8 C 77 % 1032,5 hPa 0,0 mm 1,3 km/h (1 Bft) S-SW 202 0,3 C 3,6 km/h (1 Bft)
06.12.2015 20:55 4,2 C 4,0 C 75 % 1032,7 hPa 0,0 mm 1,3 km/h (1 Bft) S 180 0,2 C 0,0 km/h (0 Bft)
06.12.2015 21:00 4,4 C 4,1 C 76 % 1032,7 hPa 0,0 mm 1,6 km/h (1 Bft) SO 135 0,5 C 0,0 km/h (0 Bft)
06.12.2015 21:05 4,6 C 4,2 C 76 % 1032,7 hPa 0,0 mm 0,8 km/h (0 Bft) O-SO 112 0,7 C 0,0 km/h (0 Bft)
06.12.2015 21:10 4,3 C 4,0 C 75 % 1032,7 hPa 0,0 mm 0,3 km/h (0 Bft) SO 135 0,3 C 0,0 km/h (0 Bft)
06.12.2015 21:15 3,6 C 3,4 C 75 % 1032,8 hPa 0,0 mm 0,0 km/h (0 Bft) S-SO 157 -0,4 C 0,0 km/h (0 Bft)
06.12.2015 21:20 4,2 C 3,8 C 76 % 1032,8 hPa 0,0 mm 1,6 km/h (1 Bft) S 180 0,4 C 3,6 km/h (1 Bft)
06.12.2015 21:25 4,3 C 4,0 C 74 % 1032,8 hPa 0,0 mm 3,1 km/h (1 Bft) W-NW 292 0,1 C 6,5 km/h (2 Bft)
06.12.2015 21:30 4,2 C 4,1 C 74 % 1032,8 hPa 0,0 mm 4,4 km/h (1 Bft) S 180 -0,0 C 9,3 km/h (2 Bft)
06.12.2015 21:35 4,2 C 4,4 C 74 % 1032,8 hPa 0,0 mm 4,7 km/h (1 Bft) S-SO 157 -0,0 C 6,0 km/h (2 Bft)
06.12.2015 21:40 4,2 C 4,6 C 73 % 1032,8 hPa 0,0 mm 4,4 km/h (1 Bft) N 360 -0,2 C 7,0 km/h (2 Bft)
06.12.2015 21:45 4,3 C 4,4 C 73 % 1032,8 hPa 0,0 mm 5,2 km/h (1 Bft) W-SW 247 -0,1 C 9,8 km/h (2 Bft)
06.12.2015 21:50 2,5 C 4,0 C 74 % 1032,8 hPa 0,0 mm 2,8 km/h (1 Bft) W-SW 247 -1,7 C 3,4 km/h (1 Bft)
06.12.2015 21:55 2,2 C 3,2 C 75 % 1033,0 hPa 0,0 mm 1,3 km/h (1 Bft) SO 135 -1,8 C 3,1 km/h (1 Bft)
06.12.2015 22:00 1,9 C 2,2 C 76 % 1033,0 hPa 0,0 mm 0,8 km/h (0 Bft) SO 135 -1,9 C 0,0 km/h (0 Bft)
06.12.2015 22:05 1,8 C 1,7 C 76 % 1033,0 hPa 0,0 mm 0,8 km/h (0 Bft) SO 135 -2,0 C 0,0 km/h (0 Bft)
06.12.2015 22:10 1,4 C 1,3 C 76 % 1033,0 hPa 0,0 mm 0,0 km/h (0 Bft) SO 135 -2,4 C 0,0 km/h (0 Bft)
06.12.2015 22:15 1,3 C 1,1 C 77 % 1033,1 hPa 0,0 mm 0,0 km/h (0 Bft) SO 135 -2,3 C 0,0 km/h (0 Bft)
06.12.2015 22:20 1,4 C 1,0 C 78 % 1033,1 hPa 0,0 mm 0,0 km/h (0 Bft) SO 135 -2,0 C 0,0 km/h (0 Bft)
06.12.2015 22:25 1,2 C 0,8 C 79 % 1033,1 hPa 0,0 mm 0,0 km/h (0 Bft) SO 135 -2,0 C 0,0 km/h (0 Bft)
06.12.2015 22:30 1,2 C 0,7 C 79 % 1033,1 hPa 0,0 mm 0,0 km/h (0 Bft) SO 135 -2,0 C 0,0 km/h (0 Bft)
06.12.2015 22:35 1,2 C 0,7 C 79 % 1033,3 hPa 0,0 mm 0,0 km/h (0 Bft) SO 135 -2,0 C 0,0 km/h (0 Bft)
06.12.2015 22:40 1,0 C 0,5 C 79 % 1033,3 hPa 0,0 mm 0,0 km/h (0 Bft) S 180 -2,2 C 0,0 km/h (0 Bft)
06.12.2015 22:45 0,9 C 0,4 C 80 % 1033,3 hPa 0,0 mm 0,0 km/h (0 Bft) SO 135 -2,2 C 0,0 km/h (0 Bft)
06.12.2015 22:50 0,7 C 0,3 C 80 % 1033,3 hPa 0,0 mm 0,0 km/h (0 Bft) SO 135 -2,3 C 0,0 km/h (0 Bft)
06.12.2015 22:55 0,5 C 0,1 C 80 % 1033,3 hPa 0,0 mm 0,0 km/h (0 Bft) SO 135 -2,5 C 0,0 km/h (0 Bft)
06.12.2015 23:00 0,4 C 0,0 C 81 % 1033,3 hPa 0,0 mm 0,0 km/h (0 Bft) SO 135 -2,5 C 0,0 km/h (0 Bft)
06.12.2015 23:05 0,6 C 0,1 C 82 % 1033,3 hPa 0,0 mm 0,0 km/h (0 Bft) SO 135 -2,1 C 0,0 km/h (0 Bft)
06.12.2015 23:10 0,6 C 0,2 C 83 % 1033,3 hPa 0,0 mm 0,0 km/h (0 Bft) SO 135 -1,9 C 0,0 km/h (0 Bft)
06.12.2015 23:15 0,3 C 0,0 C 83 % 1033,4 hPa 0,0 mm 0,0 km/h (0 Bft) SO 135 -2,2 C 0,0 km/h (0 Bft)
06.12.2015 23:20 0,2 C -0,2 C 83 % 1033,4 hPa 0,0 mm 0,0 km/h (0 Bft) SO 135 -2,3 C 0,0 km/h (0 Bft)
06.12.2015 23:25 0,3 C -0,1 C 83 % 1033,4 hPa 0,0 mm 0,0 km/h (0 Bft) SO 135 -2,2 C 0,0 km/h (0 Bft)
06.12.2015 23:30 0,1 C -0,3 C 83 % 1033,4 hPa 0,0 mm 0,0 km/h (0 Bft) SO 135 -2,4 C 0,0 km/h (0 Bft)
06.12.2015 23:35 0,0 C -0,4 C 83 % 1033,5 hPa 0,0 mm 0,0 km/h (0 Bft) SO 135 -2,5 C 0,0 km/h (0 Bft)
06.12.2015 23:40 0,4 C 0,0 C 84 % 1033,5 hPa 0,0 mm 0,0 km/h (0 Bft) W-SW 247 -2,0 C 0,0 km/h (0 Bft)
06.12.2015 23:45 0,6 C 0,2 C 85 % 1033,5 hPa 0,0 mm 0,0 km/h (0 Bft) S-SO 157 -1,6 C 0,0 km/h (0 Bft)
06.12.2015 23:50 0,6 C 0,4 C 85 % 1033,5 hPa 0,0 mm 0,0 km/h (0 Bft) SO 135 -1,6 C 0,0 km/h (0 Bft)
06.12.2015 23:55 0,6 C 0,4 C 85 % 1033,5 hPa 0,0 mm 0,0 km/h (0 Bft) SO 135 -1,6 C 0,0 km/h (0 Bft)
06.12.2015 23:56 0,6 C 0,3 C 85 % 1033,5 hPa 0,0 mm 0,0 km/h (0 Bft) SO 135 -1,6 C 0,0 km/h (0 Bft)
_ Min-Zeit 07:35 07:35 14:05 07:50 - 23:56 - - 06:35 23:56
Minimum _ -2,1 C -2,3 C 62 % 1029,7 hPa - 0,0 km/h (0 Bft) - - -3,7 C 0,0 km/h (0 Bft)
_ Max-Zeit 13:55 14:05 01:35 23:56 23:56 14:00 - - 13:55 14:00
Maximum _ 10,8 C 14,0 C 93 % 1033,5 hPa 0,0 mm 12,2 km/h
NW (2 Bft)
- - 3,8 C 27,7 km/h
NW (4 Bft)
Durchschnitt _ 3,3 C 3,3 C 80 % 1031,2 hPa #0,0 mm 1,8 km/h (1 Bft) S - 0,0 C 2,7 km/h (1 Bft)